sat.trackr.live / text

‹ back to catalog

STARLINK-32464

NORAD 62140 · 2024-224B

PAYLOAD ACTIVE UNKNOWN

§ Identity

Operator
Country
US
Launch date
2024-11-30
Launch site
AFETR
Launch vehicle
Mass (kg)
RCS (m²)

Purposes: comms

External: N2YO · Heavens-Above · Gunter

§ Orbital elements

Epoch: 2026-09-21T01:07:15.945312Z

Period
94.27 min
Inclination
43.0030°
Eccentricity
0.0001875
Mean motion
15.27605293 rev/d
Perigee alt
481.7 km
Apogee alt
484.3 km
Semi-major
6,861.1 km
B*
5.6235e-4
RAAN
135.1522°
Arg perigee
273.7239°
Mean anomaly
86.3399°
Rev number
10,229

§ Raw data

STARLINK-324641 62140U 24224B   26264.04671233  .00015256  00000+0  56235-3 0  99952 62140  43.0030 135.1522 0001875 273.7239  86.3399 15.27605293102290

JSON: /api/v1/satellites/62140 · /tle

For live sub-satellite position, see the globe view (requires WebGL).

§ Visibility from observer

Set your observer location to see the next 7 days of passes ≥ 10°. The values pass through the URL so the page stays shareable.

No JS? Fill the form by hand. The geolocation button needs JavaScript.